Time,TemperatureF,DewpointF,PressureIn,WindDirection,WindDirectionDegrees,WindSpeedMPH,WindSpeedGustMPH,Humidity,HourlyPrecipIn,Conditions,Clouds,dailyrainin,SoftwareType,DateUTC
2013-04-13 00:00:00,69.7,64.0,29.77,West,267,0.0,0.0,82,0.00,,---,1.10,VWS V14.01,2013-04-13 04:00:00,
2013-04-13 00:05:00,69.7,64.0,29.77,SSW,197,0.0,0.0,82,0.00,,---,0.00,VWS V14.01,2013-04-13 04:05:00,
2013-04-13 00:10:00,69.8,64.1,29.77,WSW,250,0.0,0.0,82,0.00,,---,0.00,VWS V14.01,2013-04-13 04:10:00,
2013-04-13 00:15:00,69.7,64.0,29.78,WSW,252,0.0,0.0,82,0.00,,---,0.00,VWS V14.01,2013-04-13 04:15:00,
2013-04-13 00:20:00,69.7,64.0,29.78,WSW,245,0.0,0.0,82,0.00,,---,0.00,VWS V14.01,2013-04-13 04:20:00,
2013-04-13 00:25:00,69.6,63.9,29.78,WSW,250,0.0,0.0,82,0.00,,---,0.00,VWS V14.01,2013-04-13 04:25:00,
2013-04-13 00:30:00,69.4,63.3,29.78,WNW,290,0.0,0.0,81,0.00,,---,0.00,VWS V14.01,2013-04-13 04:30:00,
2013-04-13 00:35:00,69.4,63.3,29.78,West,281,0.0,0.0,81,0.00,,---,0.00,VWS V14.01,2013-04-13 04:35:00,
2013-04-13 00:40:00,69.2,63.1,29.78,West,273,0.0,0.0,81,0.00,,---,0.00,VWS V14.01,2013-04-13 04:40:00,
2013-04-13 00:45:00,69.1,63.0,29.79,West,273,0.0,0.0,81,0.00,,---,0.00,VWS V14.01,2013-04-13 04:45:00,
2013-04-13 00:50:00,69.1,63.4,29.78,West,260,0.0,0.0,82,0.00,,---,0.00,VWS V14.01,2013-04-13 04:50:00,
2013-04-13 00:55:00,69.0,63.3,29.79,West,272,0.0,0.0,82,0.00,,---,0.00,VWS V14.01,2013-04-13 04:55:00,
2013-04-13 01:00:00,68.9,63.2,29.79,WNW,283,0.0,0.0,82,0.00,,---,0.00,VWS V14.01,2013-04-13 05:00:00,
2013-04-13 01:05:00,68.6,62.5,29.79,WNW,298,0.0,0.0,81,0.00,,---,0.00,VWS V14.01,2013-04-13 05:05:00,
2013-04-13 01:10:00,68.3,62.2,29.78,WNW,293,0.0,0.0,81,0.00,,---,0.00,VWS V14.01,2013-04-13 05:10:00,
2013-04-13 01:15:00,68.1,62.1,29.79,WNW,301,0.0,0.0,81,0.00,,---,0.00,VWS V14.01,2013-04-13 05:15:00,
2013-04-13 01:20:00,68.0,62.0,29.79,NW,313,0.0,0.0,81,0.00,,---,0.00,VWS V14.01,2013-04-13 05:20:00,
2013-04-13 01:25:00,67.5,60.8,29.79,West,281,0.0,0.0,79,0.00,,---,0.00,VWS V14.01,2013-04-13 05:25:00,
2013-04-13 01:30:00,67.2,59.8,29.79,NW,326,0.0,0.0,77,0.00,,---,0.00,VWS V14.01,2013-04-13 05:30:00,
2013-04-13 01:35:00,67.1,58.9,29.79,West,277,0.0,0.0,75,0.00,,---,0.00,VWS V14.01,2013-04-13 05:35:00,
2013-04-13 01:40:00,67.0,57.7,29.80,WNW,287,0.0,0.0,72,0.00,,---,0.00,VWS V14.01,2013-04-13 05:40:00,
2013-04-13 01:45:00,66.8,56.3,29.80,West,281,0.0,0.0,69,0.00,,---,0.00,VWS V14.01,2013-04-13 05:45:00,
2013-04-13 01:50:00,66.8,55.9,29.80,WNW,296,0.0,0.0,68,0.00,,---,0.00,VWS V14.01,2013-04-13 05:50:00,
2013-04-13 01:55:00,66.5,55.2,29.80,WNW,291,0.0,0.0,67,0.00,,---,0.00,VWS V14.01,2013-04-13 05:55:00,
2013-04-13 02:00:00,66.2,54.9,29.80,WNW,291,0.0,0.0,67,0.00,,---,0.00,VWS V14.01,2013-04-13 06:00:00,
2013-04-13 02:05:00,65.9,54.7,29.80,WNW,291,0.0,0.0,67,0.00,,---,0.00,VWS V14.01,2013-04-13 06:05:00,
2013-04-13 02:10:00,65.6,54.4,29.80,West,279,0.0,0.0,67,0.00,,---,0.00,VWS V14.01,2013-04-13 06:10:00,
2013-04-13 02:15:00,65.3,54.5,29.79,WSW,256,0.0,0.0,68,0.00,,---,0.00,VWS V14.01,2013-04-13 06:15:00,
2013-04-13 02:20:00,65.0,54.2,29.79,WSW,255,0.0,0.0,68,0.00,,---,0.00,VWS V14.01,2013-04-13 06:20:00,
2013-04-13 02:25:00,64.7,53.9,29.80,WNW,288,0.0,0.0,68,0.00,,---,0.00,VWS V14.01,2013-04-13 06:25:00,
2013-04-13 02:30:00,64.4,54.0,29.80,WNW,287,0.0,0.0,69,0.00,,---,0.00,VWS V14.01,2013-04-13 06:30:00,
2013-04-13 02:35:00,64.0,53.6,29.80,WNW,286,0.0,0.0,69,0.00,,---,0.00,VWS V14.01,2013-04-13 06:35:00,
2013-04-13 02:40:00,63.8,53.5,29.80,WNW,286,0.0,0.0,69,0.00,,---,0.00,VWS V14.01,2013-04-13 06:40:00,
2013-04-13 02:45:00,63.6,53.3,29.80,WNW,287,0.0,0.0,69,0.00,,---,0.00,VWS V14.01,2013-04-13 06:45:00,
2013-04-13 02:51:00,63.4,52.7,29.80,WNW,286,0.0,0.0,68,0.00,,---,0.00,VWS V14.01,2013-04-13 06:51:00,
2013-04-13 02:56:00,63.2,52.5,29.80,West,275,0.0,0.0,68,0.00,,---,0.00,VWS V14.01,2013-04-13 06:56:00,
2013-04-13 03:00:00,69.7,64.0,29.77,WNW,286,0.0,0.0,82,0.00,,---,1.10,VWS V14.01,2013-04-13 07:00:00,
2013-04-13 03:01:00,63.1,52.4,29.81,West,275,0.0,0.0,68,0.00,,---,0.00,VWS V14.01,2013-04-13 07:01:00,
2013-04-13 03:06:00,62.9,51.8,29.81,West,277,0.0,0.0,67,0.00,,---,0.00,VWS V14.01,2013-04-13 07:06:00,
2013-04-13 03:11:00,62.7,51.6,29.81,West,277,0.0,0.0,67,0.00,,---,0.00,VWS V14.01,2013-04-13 07:11:00,
2013-04-13 03:16:00,62.6,51.5,29.82,West,279,0.0,0.0,67,0.00,,---,0.00,VWS V14.01,2013-04-13 07:16:00,
2013-04-13 03:21:00,62.3,50.8,29.82,West,281,0.0,0.0,66,0.00,,---,0.00,VWS V14.01,2013-04-13 07:21:00,
2013-04-13 03:26:00,62.1,50.6,29.82,WNW,298,0.0,0.0,66,0.00,,---,0.00,VWS V14.01,2013-04-13 07:26:00,
2013-04-13 03:30:00,69.4,63.3,29.78,WNW,290,0.0,0.0,81,0.00,,---,0.00,VWS V14.01,2013-04-13 07:30:00,
2013-04-13 03:31:00,61.8,50.7,29.82,WNW,298,0.0,0.0,67,0.00,,---,0.00,VWS V14.01,2013-04-13 07:31:00,
2013-04-13 03:37:00,61.6,50.5,29.82,WNW,291,0.0,0.0,67,0.00,,---,0.00,VWS V14.01,2013-04-13 07:37:00,
2013-04-13 03:42:00,61.4,50.4,29.82,WNW,294,0.0,0.0,67,0.00,,---,0.00,VWS V14.01,2013-04-13 07:42:00,
2013-04-13 03:47:00,61.3,50.3,29.81,WNW,297,0.0,0.0,67,0.00,,---,0.00,VWS V14.01,2013-04-13 07:47:00,
2013-04-13 03:52:00,61.1,50.1,29.82,WNW,297,0.0,0.0,67,0.00,,---,0.00,VWS V14.01,2013-04-13 07:52:00,
2013-04-13 03:57:00,61.0,50.0,29.82,WNW,296,0.0,0.0,67,0.00,,---,0.00,VWS V14.01,2013-04-13 07:57:00,
2013-04-13 04:00:00,68.8,63.1,29.79,WNW,283,0.0,0.0,82,0.00,,---,0.00,VWS V14.01,2013-04-13 08:00:00,
2013-04-13 04:02:00,60.8,49.8,29.82,WNW,282,0.0,0.0,67,0.00,,---,0.00,VWS V14.01,2013-04-13 08:02:00,
2013-04-13 04:07:00,60.6,49.6,29.82,WNW,302,0.0,0.0,67,0.00,,---,0.00,VWS V14.01,2013-04-13 08:07:00,
2013-04-13 04:12:00,60.6,49.2,29.82,WNW,293,0.0,0.0,66,0.00,,---,0.00,VWS V14.01,2013-04-13 08:12:00,
2013-04-13 04:17:00,60.5,49.1,29.82,WNW,295,0.0,0.0,66,0.00,,---,0.00,VWS V14.01,2013-04-13 08:17:00,
2013-04-13 04:22:00,60.4,49.0,29.82,WNW,292,0.0,0.0,66,0.00,,---,0.00,VWS V14.01,2013-04-13 08:22:00,
2013-04-13 04:27:00,60.2,48.8,29.82,NW,306,0.0,0.0,66,0.00,,---,0.00,VWS V14.01,2013-04-13 08:27:00,
2013-04-13 04:30:00,67.2,59.8,29.79,WNW,284,0.0,0.0,77,0.00,,---,0.00,VWS V14.01,2013-04-13 08:30:00,
2013-04-13 04:32:00,60.1,48.7,29.82,NW,309,0.0,0.0,66,0.00,,---,0.00,VWS V14.01,2013-04-13 08:32:00,
2013-04-13 04:37:00,59.9,48.9,29.82,WNW,303,0.0,0.0,67,0.00,,---,0.00,VWS V14.01,2013-04-13 08:37:00,
2013-04-13 04:43:00,59.6,48.6,29.83,WNW,294,0.0,0.0,67,0.00,,---,0.00,VWS V14.01,2013-04-13 08:43:00,
2013-04-13 04:48:00,59.4,48.5,29.83,WNW,294,0.0,0.0,67,0.00,,---,0.00,VWS V14.01,2013-04-13 08:48:00,
2013-04-13 04:53:00,59.1,48.6,29.83,WNW,296,0.0,0.0,68,0.00,,---,0.00,VWS V14.01,2013-04-13 08:53:00,
2013-04-13 04:58:00,58.9,48.4,29.83,WNW,298,0.0,0.0,68,0.00,,---,0.00,VWS V14.01,2013-04-13 08:58:00,
2013-04-13 05:00:00,66.2,54.9,29.80,WNW,291,0.0,0.0,67,0.00,,---,0.00,VWS V14.01,2013-04-13 09:00:00,
2013-04-13 05:03:00,58.7,48.6,29.83,WNW,298,0.0,0.0,69,0.00,,---,0.00,VWS V14.01,2013-04-13 09:03:00,
2013-04-13 05:08:00,58.5,48.4,29.83,WNW,297,0.0,0.0,69,0.00,,---,0.00,VWS V14.01,2013-04-13 09:08:00,
2013-04-13 05:13:00,58.3,48.2,29.83,WNW,301,0.0,0.0,69,0.00,,---,0.00,VWS V14.01,2013-04-13 09:13:00,
2013-04-13 05:18:00,58.1,48.0,29.83,WNW,302,0.0,0.0,69,0.00,,---,0.00,VWS V14.01,2013-04-13 09:18:00,
2013-04-13 05:23:00,58.0,48.3,29.83,WNW,302,0.0,0.0,70,0.00,,---,0.00,VWS V14.01,2013-04-13 09:23:00,
2013-04-13 05:28:00,57.8,48.1,29.83,WNW,303,0.0,0.0,70,0.00,,---,0.00,VWS V14.01,2013-04-13 09:28:00,
2013-04-13 05:30:00,64.4,54.0,29.80,WNW,287,0.0,0.0,69,0.00,,---,0.00,VWS V14.01,2013-04-13 09:30:00,
2013-04-13 05:34:00,57.6,47.9,29.83,NW,319,0.0,0.0,70,0.00,,---,0.00,VWS V14.01,2013-04-13 09:34:00,
2013-04-13 05:39:00,57.5,47.8,29.83,NNW,328,0.0,0.0,70,0.00,,---,0.00,VWS V14.01,2013-04-13 09:39:00,
2013-04-13 05:44:00,57.4,47.7,29.83,WNW,284,0.0,0.0,70,0.00,,---,0.00,VWS V14.01,2013-04-13 09:44:00,
2013-04-13 05:49:00,57.4,47.3,29.83,WNW,294,0.0,0.0,69,0.00,,---,0.00,VWS V14.01,2013-04-13 09:49:00,
2013-04-13 05:54:00,57.3,47.2,29.83,WNW,290,0.0,0.0,69,0.00,,---,0.00,VWS V14.01,2013-04-13 09:54:00,
2013-04-13 05:59:00,57.3,46.8,29.83,WNW,286,0.0,0.0,68,0.00,,---,0.00,VWS V14.01,2013-04-13 09:59:00,
2013-04-13 06:00:00,63.1,52.4,29.81,West,275,0.0,0.0,68,0.00,,---,0.00,VWS V14.01,2013-04-13 10:00:00,
2013-04-13 06:04:00,57.3,46.8,29.84,NW,314,0.0,0.0,68,0.00,,---,0.00,VWS V14.01,2013-04-13 10:04:00,
2013-04-13 06:09:00,57.2,46.8,29.84,NW,314,0.0,0.0,68,0.00,,---,0.00,VWS V14.01,2013-04-13 10:09:00,
2013-04-13 06:14:00,57.1,46.7,29.84,NW,311,0.0,0.0,68,0.00,,---,0.00,VWS V14.01,2013-04-13 10:14:00,
2013-04-13 06:19:00,57.0,46.6,29.85,NW,310,0.0,0.0,68,0.00,,---,0.00,VWS V14.01,2013-04-13 10:19:00,
2013-04-13 06:24:00,56.9,46.5,29.85,WNW,302,0.0,0.0,68,0.00,,---,0.00,VWS V14.01,2013-04-13 10:24:00,
2013-04-13 06:29:00,56.8,46.4,29.85,WNW,302,0.0,0.0,68,0.00,,---,0.00,VWS V14.01,2013-04-13 10:29:00,
2013-04-13 06:30:00,61.9,50.8,29.81,WNW,298,0.0,0.0,67,0.00,,---,0.00,VWS V14.01,2013-04-13 10:30:00,
2013-04-13 06:34:00,56.7,46.3,29.85,NW,311,0.0,0.0,68,0.00,,---,0.00,VWS V14.01,2013-04-13 10:34:00,
2013-04-13 06:39:00,56.5,46.1,29.86,WNW,296,0.0,0.0,68,0.00,,---,0.00,VWS V14.01,2013-04-13 10:39:00,
2013-04-13 06:44:00,56.5,46.1,29.86,NW,316,0.0,0.0,68,0.00,,---,0.00,VWS V14.01,2013-04-13 10:44:00,
2013-04-13 06:50:00,56.4,46.0,29.86,NW,323,0.0,0.0,68,0.00,,---,0.00,VWS V14.01,2013-04-13 10:50:00,
2013-04-13 06:55:00,56.3,45.9,29.87,NW,317,0.0,0.0,68,0.00,,---,0.00,VWS V14.01,2013-04-13 10:55:00,
2013-04-13 07:00:00,56.2,45.8,29.87,NW,323,0.0,0.0,68,0.00,,---,0.00,VWS V14.01,2013-04-13 11:00:00,
2013-04-13 07:05:00,56.1,46.1,29.87,NW,313,0.0,0.0,69,0.00,,---,0.00,VWS V14.01,2013-04-13 11:05:00,
2013-04-13 07:10:00,56.0,46.0,29.87,NW,311,0.0,0.0,69,0.00,,---,0.00,VWS V14.01,2013-04-13 11:10:00,
2013-04-13 07:15:00,56.0,46.0,29.88,WNW,298,0.0,0.0,69,0.00,,---,0.00,VWS V14.01,2013-04-13 11:15:00,
2013-04-13 07:20:00,55.9,45.9,29.88,WNW,298,0.0,0.0,69,0.00,,---,0.00,VWS V14.01,2013-04-13 11:20:00,
2013-04-13 07:25:00,55.8,46.2,29.89,WNW,298,0.0,0.0,70,0.00,,---,0.00,VWS V14.01,2013-04-13 11:25:00,
2013-04-13 07:30:00,55.8,46.2,29.89,NW,304,0.0,0.0,70,0.00,,---,0.00,VWS V14.01,2013-04-13 11:30:00,
2013-04-13 07:35:00,55.9,46.3,29.89,NW,311,0.0,0.0,70,0.00,,---,0.00,VWS V14.01,2013-04-13 11:35:00,
2013-04-13 07:41:00,56.1,46.5,29.90,WNW,303,0.0,0.0,70,0.00,,---,0.00,VWS V14.01,2013-04-13 11:41:00,
2013-04-13 07:46:00,56.6,46.9,29.90,NNW,327,0.0,0.0,70,0.00,,---,0.00,VWS V14.01,2013-04-13 11:46:00,
2013-04-13 07:51:00,56.9,46.8,29.90,WNW,288,0.0,0.0,69,0.00,,---,0.00,VWS V14.01,2013-04-13 11:51:00,
2013-04-13 07:56:00,57.4,47.3,29.90,NNW,330,0.0,0.0,69,0.00,,---,0.00,VWS V14.01,2013-04-13 11:56:00,
2013-04-13 08:00:00,58.8,48.3,29.83,WNW,299,0.0,0.0,68,0.00,,---,0.00,VWS V14.01,2013-04-13 12:00:00,
2013-04-13 08:01:00,57.8,47.3,29.90,NW,315,0.0,0.0,68,0.00,,---,0.00,VWS V14.01,2013-04-13 12:01:00,
2013-04-13 08:06:00,58.3,47.4,29.90,NNW,332,0.0,0.0,67,0.00,,---,0.00,VWS V14.01,2013-04-13 12:06:00,
2013-04-13 08:11:00,58.9,47.6,29.91,NW,318,0.0,0.0,66,0.00,,---,0.00,VWS V14.01,2013-04-13 12:11:00,
2013-04-13 08:16:00,59.5,47.3,29.90,NNW,340,0.0,0.0,64,0.00,,---,0.00,VWS V14.01,2013-04-13 12:16:00,
2013-04-13 08:22:00,59.8,47.6,29.90,NNW,338,0.0,0.0,64,0.00,,---,0.00,VWS V14.01,2013-04-13 12:22:00,
2013-04-13 08:27:00,60.2,47.6,29.90,NNW,336,0.0,0.0,63,0.00,,---,0.00,VWS V14.01,2013-04-13 12:27:00,
2013-04-13 08:30:00,57.7,48.0,29.83,WNW,302,0.0,0.0,70,0.00,,---,0.00,VWS V14.01,2013-04-13 12:30:00,
2013-04-13 08:32:00,60.7,47.6,29.91,NNW,336,0.0,0.0,62,0.00,,---,0.00,VWS V14.01,2013-04-13 12:32:00,
2013-04-13 08:37:00,61.3,47.8,29.91,NW,311,0.0,0.0,61,0.00,,---,0.00,VWS V14.01,2013-04-13 12:37:00,
2013-04-13 08:42:00,61.8,47.8,29.91,North,355,0.0,0.0,60,0.00,,---,0.00,VWS V14.01,2013-04-13 12:42:00,
2013-04-13 08:47:00,62.3,48.2,29.91,North,360,0.0,0.0,60,0.00,,---,0.00,VWS V14.01,2013-04-13 12:47:00,
2013-04-13 08:52:00,62.8,47.8,29.92,NNW,331,0.0,0.0,58,0.00,,---,0.00,VWS V14.01,2013-04-13 12:52:00,
2013-04-13 08:57:00,62.8,47.4,29.92,NNW,344,0.0,0.0,57,0.00,,---,0.00,VWS V14.01,2013-04-13 12:57:00,
2013-04-13 09:00:00,57.3,46.8,29.84,WNW,287,0.0,0.0,68,0.00,,---,0.00,VWS V14.01,2013-04-13 13:00:00,
2013-04-13 09:02:00,63.2,47.7,29.92,NE,42,0.0,0.0,57,0.00,,---,0.00,VWS V14.01,2013-04-13 13:02:00,
2013-04-13 09:07:00,63.7,48.2,29.92,NNW,339,0.0,0.0,57,0.00,,---,0.00,VWS V14.01,2013-04-13 13:07:00,
2013-04-13 09:13:00,63.8,47.8,29.91,NNW,346,0.0,0.0,56,0.00,,---,0.00,VWS V14.01,2013-04-13 13:13:00,
2013-04-13 09:18:00,63.8,47.8,29.92,NE,42,0.0,0.0,56,0.00,,---,0.00,VWS V14.01,2013-04-13 13:18:00,
2013-04-13 09:23:00,64.0,48.0,29.92,North,5,0.0,0.0,56,0.00,,---,0.00,VWS V14.01,2013-04-13 13:23:00,
2013-04-13 09:28:00,63.9,47.4,29.91,NNW,340,0.0,0.0,55,0.00,,---,0.00,VWS V14.01,2013-04-13 13:28:00,
2013-04-13 09:30:00,56.7,46.3,29.85,NW,306,0.0,0.0,68,0.00,,---,0.00,VWS V14.01,2013-04-13 13:30:00,
2013-04-13 09:33:00,64.1,48.1,29.92,NNW,332,0.0,0.0,56,0.00,,---,0.00,VWS V14.01,2013-04-13 13:33:00,
2013-04-13 09:38:00,64.4,47.4,29.92,NNE,32,0.0,0.0,54,0.00,,---,0.00,VWS V14.01,2013-04-13 13:38:00,
2013-04-13 09:43:00,64.9,47.4,29.92,NNE,30,0.0,0.0,53,0.00,,---,0.00,VWS V14.01,2013-04-13 13:43:00,
2013-04-13 09:48:00,65.0,48.0,29.92,NNW,342,0.0,0.0,54,0.00,,---,0.00,VWS V14.01,2013-04-13 13:48:00,
2013-04-13 09:53:00,65.2,47.2,29.92,North,355,0.0,0.0,52,0.00,,---,0.00,VWS V14.01,2013-04-13 13:53:00,
2013-04-13 09:58:00,65.7,47.6,29.92,NNE,18,0.0,0.0,52,0.00,,---,0.00,VWS V14.01,2013-04-13 13:58:00,
2013-04-13 10:00:00,56.2,45.8,29.87,NW,322,0.0,0.0,68,0.00,,---,0.00,VWS V14.01,2013-04-13 14:00:00,
2013-04-13 10:03:00,65.9,46.8,29.92,NNE,32,0.0,0.0,50,0.00,,---,0.00,VWS V14.01,2013-04-13 14:03:00,
2013-04-13 10:08:00,66.0,46.8,29.92,NNE,26,0.0,0.0,50,0.00,,---,0.00,VWS V14.01,2013-04-13 14:08:00,
2013-04-13 10:13:00,66.1,46.9,29.92,ENE,65,0.0,0.0,50,0.00,,---,0.00,VWS V14.01,2013-04-13 14:13:00,
2013-04-13 10:18:00,66.2,47.0,29.92,North,355,0.0,0.0,50,0.00,,---,0.00,VWS V14.01,2013-04-13 14:18:00,
2013-04-13 10:23:00,66.5,47.8,29.93,North,5,0.0,0.0,51,0.00,,---,0.00,VWS V14.01,2013-04-13 14:23:00,
2013-04-13 10:28:00,67.0,47.2,29.93,NNE,16,0.0,0.0,49,0.00,,---,0.00,VWS V14.01,2013-04-13 14:28:00,
2013-04-13 10:30:00,55.8,46.2,29.89,NW,304,0.0,0.0,70,0.00,,---,0.00,VWS V14.01,2013-04-13 14:30:00,
2013-04-13 10:33:00,67.3,48.0,29.93,NNE,12,0.0,0.0,50,0.00,,---,0.00,VWS V14.01,2013-04-13 14:33:00,
2013-04-13 10:39:00,67.2,48.5,29.93,North,355,0.0,0.0,51,0.00,,---,0.00,VWS V14.01,2013-04-13 14:39:00,
2013-04-13 10:44:00,67.4,47.6,29.93,NNW,346,0.0,0.0,49,0.00,,---,0.00,VWS V14.01,2013-04-13 14:44:00,
2013-04-13 10:49:00,67.3,47.5,29.93,NE,37,0.0,0.0,49,0.00,,---,0.00,VWS V14.01,2013-04-13 14:49:00,
2013-04-13 10:54:00,67.7,47.9,29.94,NNE,15,0.0,0.0,49,0.00,,---,0.00,VWS V14.01,2013-04-13 14:54:00,
2013-04-13 10:59:00,68.1,47.1,29.94,NNE,28,0.0,0.0,47,0.00,,---,0.00,VWS V14.01,2013-04-13 14:59:00,
2013-04-13 11:00:00,57.8,47.3,29.90,NW,314,0.0,0.0,68,0.00,,---,0.00,VWS V14.01,2013-04-13 15:00:00,
2013-04-13 11:04:00,67.9,47.0,29.94,NNE,20,0.0,0.0,47,0.00,,---,0.00,VWS V14.01,2013-04-13 15:04:00,
2013-04-13 11:09:00,68.0,47.0,29.94,NNE,15,0.0,0.0,47,0.00,,---,0.00,VWS V14.01,2013-04-13 15:09:00,
2013-04-13 11:14:00,67.9,47.0,29.94,NNE,22,0.0,0.0,47,0.00,,---,0.00,VWS V14.01,2013-04-13 15:14:00,
2013-04-13 11:19:00,68.2,46.7,29.94,NE,49,0.0,0.0,46,0.00,,---,0.00,VWS V14.01,2013-04-13 15:19:00,
2013-04-13 11:24:00,68.0,47.0,29.94,NE,51,0.0,0.0,47,0.00,,---,0.00,VWS V14.01,2013-04-13 15:24:00,
2013-04-13 11:29:00,68.1,48.8,29.94,NW,311,0.0,0.0,50,0.00,,---,0.00,VWS V14.01,2013-04-13 15:29:00,
2013-04-13 11:30:00,60.5,47.9,29.90,NNW,334,0.0,0.0,63,0.00,,---,0.00,VWS V14.01,2013-04-13 15:30:00,
2013-04-13 11:34:00,68.6,47.0,29.94,North,5,0.0,0.0,46,0.00,,---,0.00,VWS V14.01,2013-04-13 15:34:00,
2013-04-13 11:40:00,68.4,47.4,29.94,NNE,20,0.0,0.0,47,0.00,,---,0.00,VWS V14.01,2013-04-13 15:40:00,
2013-04-13 11:45:00,68.5,47.5,29.94,NE,53,0.0,0.0,47,0.00,,---,0.00,VWS V14.01,2013-04-13 15:45:00,
2013-04-13 11:50:00,68.9,47.3,29.94,NNW,336,0.0,0.0,46,0.00,,---,0.00,VWS V14.01,2013-04-13 15:50:00,
2013-04-13 11:55:00,69.2,48.1,29.94,North,355,0.0,0.0,47,0.00,,---,0.00,VWS V14.01,2013-04-13 15:55:00,
2013-04-13 12:00:00,69.5,47.8,29.94,NE,43,0.0,0.0,46,0.00,,---,0.00,VWS V14.01,2013-04-13 16:00:00,
2013-04-13 12:05:00,69.5,47.8,29.94,NNE,19,0.0,0.0,46,0.00,,---,0.00,VWS V14.01,2013-04-13 16:05:00,
2013-04-13 12:10:00,69.5,49.5,29.95,NE,36,0.0,0.0,49,0.00,,---,0.00,VWS V14.01,2013-04-13 16:10:00,
2013-04-13 12:15:00,69.8,48.7,29.94,NNE,28,0.0,0.0,47,0.00,,---,0.00,VWS V14.01,2013-04-13 16:15:00,
2013-04-13 12:20:00,69.9,48.2,29.94,NE,44,0.0,0.0,46,0.00,,---,0.00,VWS V14.01,2013-04-13 16:20:00,
2013-04-13 12:25:00,69.9,52.0,29.94,East,90,0.0,0.0,53,0.00,,---,0.00,VWS V14.01,2013-04-13 16:25:00,
2013-04-13 12:30:00,68.8,51.5,29.94,East,82,0.0,0.0,54,0.00,,---,0.00,VWS V14.01,2013-04-13 16:30:00,
2013-04-13 12:35:00,68.2,52.4,29.95,East,92,0.0,0.0,57,0.00,,---,0.00,VWS V14.01,2013-04-13 16:35:00,
2013-04-13 12:40:00,67.9,51.6,29.95,ESE,123,0.0,0.0,56,0.00,,---,0.00,VWS V14.01,2013-04-13 16:40:00,
2013-04-13 12:45:00,67.9,50.7,29.94,ESE,123,0.0,0.0,54,0.00,,---,0.00,VWS V14.01,2013-04-13 16:45:00,
2013-04-13 12:50:00,67.5,52.2,29.94,ESE,105,0.0,0.0,58,0.00,,---,0.00,VWS V14.01,2013-04-13 16:50:00,
2013-04-13 12:55:00,67.3,53.0,29.94,SSE,160,0.0,0.0,60,0.00,,---,0.00,VWS V14.01,2013-04-13 16:55:00,
2013-04-13 13:00:00,65.9,47.8,29.92,NNE,15,0.0,0.0,52,0.00,,---,0.00,VWS V14.01,2013-04-13 17:00:00,
2013-04-13 13:01:00,67.3,51.1,29.95,SE,126,0.0,0.0,56,0.00,,---,0.00,VWS V14.01,2013-04-13 17:01:00,
2013-04-13 13:06:00,67.2,51.9,29.94,ESE,122,0.0,0.0,58,0.00,,---,0.00,VWS V14.01,2013-04-13 17:06:00,
2013-04-13 13:10:00,66.9,50.2,29.95,SSE,153,0.0,0.0,55,0.00,,---,0.00,VWS V14.01,2013-04-13 17:10:00,
2013-04-13 13:15:00,66.9,53.5,29.95,ESE,114,0.0,0.0,62,0.00,,---,0.00,VWS V14.01,2013-04-13 17:15:00,
2013-04-13 13:20:00,67.1,52.8,29.94,SSE,163,0.0,0.0,60,0.00,,---,0.00,VWS V14.01,2013-04-13 17:20:00,
2013-04-13 13:25:00,66.6,52.3,29.94,SSE,149,0.0,0.0,60,0.00,,---,0.00,VWS V14.01,2013-04-13 17:25:00,
2013-04-13 13:30:00,66.5,52.7,29.94,SE,138,0.0,0.0,61,0.00,,---,0.00,VWS V14.01,2013-04-13 17:30:00,
2013-04-13 13:35:00,66.7,53.7,29.94,SE,146,0.0,0.0,63,0.00,,---,0.00,VWS V14.01,2013-04-13 17:35:00,
2013-04-13 13:41:00,66.1,51.8,29.94,SSE,153,0.0,0.0,60,0.00,,---,0.00,VWS V14.01,2013-04-13 17:41:00,
2013-04-13 13:46:00,66.3,53.3,29.93,SE,132,0.0,0.0,63,0.00,,---,0.00,VWS V14.01,2013-04-13 17:46:00,
2013-04-13 13:52:00,66.8,52.9,29.94,ESE,119,0.0,0.0,61,0.00,,---,0.00,VWS V14.01,2013-04-13 17:52:00,
2013-04-13 13:57:00,67.0,51.3,29.94,ESE,109,0.0,0.0,57,0.00,,---,0.00,VWS V14.01,2013-04-13 17:57:00,
2013-04-13 14:00:00,68.1,47.1,29.93,North,5,0.0,0.0,47,0.00,,---,0.00,VWS V14.01,2013-04-13 18:00:00,
2013-04-13 14:02:00,67.0,52.7,29.94,SSE,151,0.0,0.0,60,0.00,,---,0.00,VWS V14.01,2013-04-13 18:02:00,
2013-04-13 14:07:00,66.8,52.9,29.93,SE,136,0.0,0.0,61,0.00,,---,0.00,VWS V14.01,2013-04-13 18:07:00,
2013-04-13 14:12:00,66.5,53.5,29.94,SE,135,0.0,0.0,63,0.00,,---,0.00,VWS V14.01,2013-04-13 18:12:00,
2013-04-13 14:17:00,66.0,52.2,29.94,SSE,162,0.0,0.0,61,0.00,,---,0.00,VWS V14.01,2013-04-13 18:17:00,
2013-04-13 14:22:00,66.1,52.7,29.93,SSE,150,0.0,0.0,62,0.00,,---,0.00,VWS V14.01,2013-04-13 18:22:00,
2013-04-13 14:27:00,66.1,53.2,29.94,SE,136,0.0,0.0,63,0.00,,---,0.00,VWS V14.01,2013-04-13 18:27:00,
2013-04-13 14:30:00,68.3,49.0,29.94,NNW,339,0.0,0.0,50,0.00,,---,0.00,VWS V14.01,2013-04-13 18:30:00,
2013-04-13 14:32:00,65.8,52.9,29.94,SE,143,0.0,0.0,63,0.00,,---,0.00,VWS V14.01,2013-04-13 18:32:00,
2013-04-13 14:37:00,65.6,51.8,29.93,SSE,150,0.0,0.0,61,0.00,,---,0.00,VWS V14.01,2013-04-13 18:37:00,
2013-04-13 14:42:00,65.8,52.9,29.93,SE,136,0.0,0.0,63,0.00,,---,0.00,VWS V14.01,2013-04-13 18:42:00,
2013-04-13 14:47:00,65.8,52.9,29.92,SSE,158,0.0,0.0,63,0.00,,---,0.00,VWS V14.01,2013-04-13 18:47:00,
2013-04-13 14:52:00,65.9,53.4,29.92,SSE,149,0.0,0.0,64,0.00,,---,0.00,VWS V14.01,2013-04-13 18:52:00,
2013-04-13 14:57:00,66.6,54.1,29.92,SE,134,0.0,0.0,64,0.00,,---,0.00,VWS V14.01,2013-04-13 18:57:00,
2013-04-13 15:00:00,69.4,47.7,29.94,North,10,0.0,0.0,46,0.00,,---,0.00,VWS V14.01,2013-04-13 19:00:00,
2013-04-13 15:02:00,66.6,54.1,29.92,SE,138,0.0,0.0,64,0.00,,---,0.00,VWS V14.01,2013-04-13 19:02:00,
2013-04-13 15:07:00,66.3,52.9,29.92,SE,135,0.0,0.0,62,0.00,,---,0.00,VWS V14.01,2013-04-13 19:07:00,
2013-04-13 15:12:00,66.3,52.9,29.93,SSE,165,0.0,0.0,62,0.00,,---,0.00,VWS V14.01,2013-04-13 19:12:00,
2013-04-13 15:17:00,66.8,54.7,29.93,SSE,155,0.0,0.0,65,0.00,,---,0.00,VWS V14.01,2013-04-13 19:17:00,
2013-04-13 15:22:00,66.7,53.3,29.93,SSE,153,0.0,0.0,62,0.00,,---,0.00,VWS V14.01,2013-04-13 19:22:00,
2013-04-13 15:27:00,67.0,54.9,29.92,SSE,164,0.0,0.0,65,0.00,,---,0.00,VWS V14.01,2013-04-13 19:27:00,
2013-04-13 15:30:00,68.8,51.0,29.94,East,82,0.0,0.0,53,0.00,,---,0.00,VWS V14.01,2013-04-13 19:30:00,
2013-04-13 15:32:00,67.0,54.4,29.92,SE,137,0.0,0.0,64,0.00,,---,0.00,VWS V14.01,2013-04-13 19:32:00,
2013-04-13 15:37:00,66.8,53.8,29.92,SE,124,0.0,0.0,63,0.00,,---,0.00,VWS V14.01,2013-04-13 19:37:00,
2013-04-13 15:42:00,66.4,53.4,29.92,SSE,147,0.0,0.0,63,0.00,,---,0.00,VWS V14.01,2013-04-13 19:42:00,
2013-04-13 15:47:00,66.5,53.5,29.92,South,180,0.0,0.0,63,0.00,,---,0.00,VWS V14.01,2013-04-13 19:47:00,
2013-04-13 15:52:00,66.6,54.5,29.92,SSE,150,0.0,0.0,65,0.00,,---,0.00,VWS V14.01,2013-04-13 19:52:00,
2013-04-13 15:57:00,66.8,55.1,29.91,SE,124,0.0,0.0,66,0.00,,---,0.00,VWS V14.01,2013-04-13 19:57:00,
2013-04-13 16:00:00,67.3,51.1,29.94,ESE,122,0.0,0.0,56,0.00,,---,0.00,VWS V14.01,2013-04-13 20:00:00,
2013-04-13 16:02:00,66.5,54.4,29.91,ESE,114,0.0,0.0,65,0.00,,---,0.00,VWS V14.01,2013-04-13 20:02:00,
2013-04-13 16:07:00,66.3,53.8,29.91,SE,128,0.0,0.0,64,0.00,,---,0.00,VWS V14.01,2013-04-13 20:07:00,
2013-04-13 16:12:00,65.7,53.6,29.91,SE,142,0.0,0.0,65,0.00,,---,0.00,VWS V14.01,2013-04-13 20:12:00,
2013-04-13 16:17:00,65.3,53.7,29.92,ESE,107,0.0,0.0,66,0.00,,---,0.00,VWS V14.01,2013-04-13 20:17:00,
2013-04-13 16:22:00,65.5,53.4,29.92,SSE,148,0.0,0.0,65,0.00,,---,0.00,VWS V14.01,2013-04-13 20:22:00,
2013-04-13 16:27:00,65.6,53.5,29.91,SSE,160,0.0,0.0,65,0.00,,---,0.00,VWS V14.01,2013-04-13 20:27:00,
2013-04-13 16:30:00,66.5,52.7,29.94,SE,138,0.0,0.0,61,0.00,,---,0.00,VWS V14.01,2013-04-13 20:30:00,
2013-04-13 16:32:00,65.4,53.3,29.91,SSE,162,0.0,0.0,65,0.00,,---,0.00,VWS V14.01,2013-04-13 20:32:00,
2013-04-13 16:37:00,65.2,53.6,29.90,ESE,121,0.0,0.0,66,0.00,,---,0.00,VWS V14.01,2013-04-13 20:37:00,
2013-04-13 16:42:00,65.3,54.5,29.90,SE,134,0.0,0.0,68,0.00,,---,0.00,VWS V14.01,2013-04-13 20:42:00,
2013-04-13 16:47:00,65.2,54.4,29.91,ESE,109,0.0,0.0,68,0.00,,---,0.00,VWS V14.01,2013-04-13 20:47:00,
2013-04-13 16:52:00,64.7,53.9,29.91,ESE,107,0.0,0.0,68,0.00,,---,0.00,VWS V14.01,2013-04-13 20:52:00,
2013-04-13 16:57:00,64.8,54.4,29.92,East,83,0.0,0.0,69,0.00,,---,0.00,VWS V14.01,2013-04-13 20:57:00,
2013-04-13 17:00:00,67.0,53.6,29.94,SE,130,0.0,0.0,62,0.00,,---,0.00,VWS V14.01,2013-04-13 21:00:00,
2013-04-13 17:02:00,64.5,54.9,29.91,ESE,111,0.0,0.0,71,0.00,,---,0.00,VWS V14.01,2013-04-13 21:02:00,
2013-04-13 17:07:00,64.4,54.8,29.92,East,100,0.0,0.0,71,0.00,,---,0.00,VWS V14.01,2013-04-13 21:07:00,
2013-04-13 17:12:00,64.4,55.2,29.92,ESE,106,0.0,0.0,72,0.00,,---,0.00,VWS V14.01,2013-04-13 21:12:00,
2013-04-13 17:17:00,64.9,56.0,29.92,ENE,78,0.0,0.0,73,0.00,,---,0.00,VWS V14.01,2013-04-13 21:17:00,
2013-04-13 17:22:00,64.8,55.2,29.92,East,95,0.0,0.0,71,0.00,,---,0.00,VWS V14.01,2013-04-13 21:22:00,
2013-04-13 17:27:00,64.8,55.6,29.92,East,86,0.0,0.0,72,0.00,,---,0.00,VWS V14.01,2013-04-13 21:27:00,
2013-04-13 17:30:00,65.9,52.5,29.93,SE,128,0.0,0.0,62,0.00,,---,0.00,VWS V14.01,2013-04-13 21:30:00,
2013-04-13 17:32:00,64.5,55.3,29.92,East,84,0.0,0.0,72,0.00,,---,0.00,VWS V14.01,2013-04-13 21:32:00,
2013-04-13 17:37:00,64.0,54.8,29.92,East,97,0.0,0.0,72,0.00,,---,0.00,VWS V14.01,2013-04-13 21:37:00,
2013-04-13 17:42:00,64.0,55.2,29.92,East,83,0.0,0.0,73,0.00,,---,0.00,VWS V14.01,2013-04-13 21:42:00,
2013-04-13 17:47:00,64.3,55.5,29.92,SE,126,0.0,0.0,73,0.00,,---,0.00,VWS V14.01,2013-04-13 21:47:00,
2013-04-13 17:52:00,64.1,54.9,29.93,SE,137,0.0,0.0,72,0.00,,---,0.00,VWS V14.01,2013-04-13 21:52:00,
2013-04-13 17:57:00,64.0,54.8,29.92,East,94,0.0,0.0,72,0.00,,---,0.00,VWS V14.01,2013-04-13 21:57:00,
2013-04-13 18:00:00,66.5,54.4,29.92,ESE,108,0.0,0.0,65,0.00,,---,0.00,VWS V14.01,2013-04-13 22:00:00,
2013-04-13 18:02:00,64.3,55.5,29.92,ESE,118,0.0,0.0,73,0.00,,---,0.00,VWS V14.01,2013-04-13 22:02:00,
2013-04-13 18:07:00,64.6,55.8,29.93,East,91,0.0,0.0,73,0.00,,---,0.00,VWS V14.01,2013-04-13 22:07:00,
2013-04-13 18:12:00,64.4,55.2,29.93,NNE,21,0.0,0.0,72,0.00,,---,0.00,VWS V14.01,2013-04-13 22:12:00,
2013-04-13 18:17:00,64.0,54.8,29.92,East,96,0.0,0.0,72,0.00,,---,0.00,VWS V14.01,2013-04-13 22:17:00,
2013-04-13 18:22:00,64.1,55.3,29.93,SE,129,0.0,0.0,73,0.00,,---,0.00,VWS V14.01,2013-04-13 22:22:00,
2013-04-13 18:27:00,64.1,55.3,29.93,ESE,109,0.0,0.0,73,0.00,,---,0.00,VWS V14.01,2013-04-13 22:27:00,
2013-04-13 18:30:00,67.0,54.4,29.92,SE,132,0.0,0.0,64,0.00,,---,0.00,VWS V14.01,2013-04-13 22:30:00,
2013-04-13 18:32:00,64.0,54.8,29.93,East,97,0.0,0.0,72,0.00,,---,0.00,VWS V14.01,2013-04-13 22:32:00,
2013-04-13 18:37:00,63.8,54.6,29.93,ESE,103,0.0,0.0,72,0.00,,---,0.00,VWS V14.01,2013-04-13 22:37:00,
2013-04-13 18:42:00,63.8,54.6,29.93,ESE,108,0.0,0.0,72,0.00,,---,0.00,VWS V14.01,2013-04-13 22:42:00,
2013-04-13 18:47:00,63.7,54.5,29.94,ESE,107,0.0,0.0,72,0.00,,---,0.00,VWS V14.01,2013-04-13 22:47:00,
2013-04-13 18:52:00,63.7,54.9,29.94,ESE,108,0.0,0.0,73,0.00,,---,0.00,VWS V14.01,2013-04-13 22:52:00,
2013-04-13 18:57:00,63.5,54.3,29.94,ESE,111,0.0,0.0,72,0.00,,---,0.00,VWS V14.01,2013-04-13 22:57:00,
2013-04-13 19:00:00,66.4,54.3,29.91,SE,139,0.0,0.0,65,0.00,,---,0.00,VWS V14.01,2013-04-13 23:00:00,
2013-04-13 19:02:00,63.6,54.8,29.93,ESE,111,0.0,0.0,73,0.00,,---,0.00,VWS V14.01,2013-04-13 23:02:00,
2013-04-13 19:07:00,63.4,54.6,29.94,ESE,111,0.0,0.0,73,0.00,,---,0.00,VWS V14.01,2013-04-13 23:07:00,
2013-04-13 19:12:00,63.4,54.6,29.94,ESE,111,0.0,0.0,73,0.00,,---,0.00,VWS V14.01,2013-04-13 23:12:00,
2013-04-13 19:17:00,63.2,54.8,29.94,ESE,111,0.0,0.0,74,0.00,,---,0.00,VWS V14.01,2013-04-13 23:17:00,
2013-04-13 19:22:00,63.1,54.3,29.95,ESE,111,0.0,0.0,73,0.00,,---,0.00,VWS V14.01,2013-04-13 23:22:00,
2013-04-13 19:27:00,62.9,54.5,29.95,ESE,111,0.0,0.0,74,0.00,,---,0.00,VWS V14.01,2013-04-13 23:27:00,
2013-04-13 19:30:00,65.6,53.5,29.91,SE,126,0.0,0.0,65,0.00,,---,0.00,VWS V14.01,2013-04-13 23:30:00,
2013-04-13 19:32:00,62.7,54.3,29.95,ESE,111,0.0,0.0,74,0.00,,---,0.00,VWS V14.01,2013-04-13 23:32:00,
2013-04-13 19:37:00,62.6,54.6,29.94,ESE,111,0.0,0.0,75,0.00,,---,0.00,VWS V14.01,2013-04-13 23:37:00,
2013-04-13 19:42:00,62.5,54.5,29.95,ESE,111,0.0,0.0,75,0.00,,---,0.00,VWS V14.01,2013-04-13 23:42:00,
2013-04-13 19:47:00,62.3,54.3,29.95,ESE,111,0.0,0.0,75,0.00,,---,0.00,VWS V14.01,2013-04-13 23:47:00,
2013-04-13 19:52:00,62.2,54.2,29.95,ESE,111,0.0,0.0,75,0.00,,---,0.00,VWS V14.01,2013-04-13 23:52:00,
2013-04-13 19:57:00,62.1,54.5,29.95,ESE,111,0.0,0.0,76,0.00,,---,0.00,VWS V14.01,2013-04-13 23:57:00,
2013-04-13 20:00:00,64.6,54.6,29.91,East,96,0.0,0.0,70,0.00,,---,0.00,VWS V14.01,2013-04-14 00:00:00,
2013-04-13 20:02:00,62.1,54.5,29.95,ESE,111,0.0,0.0,76,0.00,,---,0.00,VWS V14.01,2013-04-14 00:02:00,
2013-04-13 20:07:00,61.9,54.3,29.95,ESE,111,0.0,0.0,76,0.00,,---,0.00,VWS V14.01,2013-04-14 00:07:00,
2013-04-13 20:12:00,61.9,54.3,29.95,ESE,111,0.0,0.0,76,0.00,,---,0.00,VWS V14.01,2013-04-14 00:12:00,
2013-04-13 20:17:00,61.9,54.3,29.96,ESE,111,0.0,0.0,76,0.00,,---,0.00,VWS V14.01,2013-04-14 00:17:00,
2013-04-13 20:22:00,61.5,53.9,29.96,ESE,111,0.0,0.0,76,0.00,,---,0.00,VWS V14.01,2013-04-14 00:22:00,
2013-04-13 20:27:00,61.2,53.6,29.96,ESE,111,0.0,0.0,76,0.00,,---,0.00,VWS V14.01,2013-04-14 00:27:00,
2013-04-13 20:30:00,64.6,55.4,29.92,ESE,115,0.0,0.0,72,0.00,,---,0.00,VWS V14.01,2013-04-14 00:30:00,
2013-04-13 20:32:00,60.9,53.7,29.97,ESE,111,0.0,0.0,77,0.00,,---,0.00,VWS V14.01,2013-04-14 00:32:00,
2013-04-13 20:37:00,60.7,53.5,29.97,ESE,111,0.0,0.0,77,0.00,,---,0.00,VWS V14.01,2013-04-14 00:37:00,
2013-04-13 20:42:00,60.4,53.2,29.97,ESE,111,0.0,0.0,77,0.00,,---,0.00,VWS V14.01,2013-04-14 00:42:00,
2013-04-13 20:47:00,60.2,53.3,29.97,ESE,111,0.0,0.0,78,0.00,,---,0.00,VWS V14.01,2013-04-14 00:47:00,
2013-04-13 20:52:00,60.0,53.1,29.97,ESE,111,0.0,0.0,78,0.00,,---,0.00,VWS V14.01,2013-04-14 00:52:00,
2013-04-13 20:57:00,59.9,53.0,29.97,ESE,111,0.0,0.0,78,0.00,,---,0.00,VWS V14.01,2013-04-14 00:57:00,
2013-04-13 21:00:00,64.3,55.5,29.92,ESE,118,0.0,0.0,73,0.00,,---,0.00,VWS V14.01,2013-04-14 01:00:00,
2013-04-13 21:02:00,59.8,52.9,29.98,ESE,111,0.0,0.0,78,0.00,,---,0.00,VWS V14.01,2013-04-14 01:02:00,
2013-04-13 21:07:00,59.7,53.2,29.98,ESE,111,0.0,0.0,79,0.00,,---,0.00,VWS V14.01,2013-04-14 01:07:00,
2013-04-13 21:12:00,59.6,53.1,29.98,ESE,111,0.0,0.0,79,0.00,,---,0.00,VWS V14.01,2013-04-14 01:12:00,
2013-04-13 21:17:00,59.5,53.0,29.98,ESE,111,0.0,0.0,79,0.00,,---,0.00,VWS V14.01,2013-04-14 01:17:00,
2013-04-13 21:22:00,59.4,53.2,29.98,ESE,111,0.0,0.0,80,0.00,,---,0.00,VWS V14.01,2013-04-14 01:22:00,
2013-04-13 21:27:00,59.5,53.3,29.98,ESE,111,0.0,0.0,80,0.00,,---,0.00,VWS V14.01,2013-04-14 01:27:00,
2013-04-13 21:30:00,64.0,54.8,29.93,ESE,109,0.0,0.0,72,0.00,,---,0.00,VWS V14.01,2013-04-14 01:30:00,
2013-04-13 21:32:00,59.3,52.8,29.98,ESE,111,0.0,0.0,79,0.00,,---,0.00,VWS V14.01,2013-04-14 01:32:00,
2013-04-13 21:37:00,59.2,53.0,29.99,ESE,111,0.0,0.0,80,0.00,,---,0.00,VWS V14.01,2013-04-14 01:37:00,
2013-04-13 21:42:00,59.2,53.0,29.99,ESE,111,0.0,0.0,80,0.00,,---,0.00,VWS V14.01,2013-04-14 01:42:00,
2013-04-13 21:47:00,59.1,52.9,29.99,ESE,111,0.0,0.0,80,0.00,,---,0.00,VWS V14.01,2013-04-14 01:47:00,
2013-04-13 21:52:00,59.0,52.8,29.99,ESE,111,0.0,0.0,80,0.00,,---,0.00,VWS V14.01,2013-04-14 01:52:00,
2013-04-13 21:57:00,58.9,52.8,30.00,ESE,111,0.0,0.0,80,0.00,,---,0.00,VWS V14.01,2013-04-14 01:57:00,
2013-04-13 22:00:00,63.5,54.7,29.93,ESE,111,0.0,0.0,73,0.00,,---,0.00,VWS V14.01,2013-04-14 02:00:00,
2013-04-13 22:02:00,58.8,52.7,30.00,ESE,111,0.0,0.0,80,0.00,,---,0.00,VWS V14.01,2013-04-14 02:02:00,
2013-04-13 22:07:00,58.9,53.1,30.00,ESE,111,0.0,0.0,81,0.00,,---,0.00,VWS V14.01,2013-04-14 02:07:00,
2013-04-13 22:12:00,58.9,53.1,30.00,ESE,111,0.0,0.0,81,0.00,,---,0.00,VWS V14.01,2013-04-14 02:12:00,
2013-04-13 22:17:00,59.0,53.2,30.00,ESE,111,0.0,0.0,81,0.00,,---,0.00,VWS V14.01,2013-04-14 02:17:00,
2013-04-13 22:22:00,59.0,53.2,30.00,ESE,111,0.0,0.0,81,0.00,,---,0.00,VWS V14.01,2013-04-14 02:22:00,
2013-04-13 22:27:00,59.0,53.2,30.01,ESE,111,0.0,0.0,81,0.00,,---,0.00,VWS V14.01,2013-04-14 02:27:00,
2013-04-13 22:30:00,62.7,54.3,29.95,ESE,111,0.0,0.0,74,0.00,,---,0.00,VWS V14.01,2013-04-14 02:30:00,
2013-04-13 22:32:00,59.0,53.2,30.00,ESE,111,0.0,0.0,81,0.00,,---,0.00,VWS V14.01,2013-04-14 02:32:00,
2013-04-13 22:37:00,59.0,53.2,30.00,ESE,111,0.0,0.0,81,0.00,,---,0.00,VWS V14.01,2013-04-14 02:37:00,
2013-04-13 22:42:00,58.8,53.0,30.01,ESE,111,0.0,0.0,81,0.00,,---,0.00,VWS V14.01,2013-04-14 02:42:00,
2013-04-13 22:47:00,58.7,52.9,30.01,ESE,111,0.0,0.0,81,0.00,,---,0.00,VWS V14.01,2013-04-14 02:47:00,
2013-04-13 22:52:00,58.5,52.7,30.01,ESE,111,0.0,0.0,81,0.00,,---,0.00,VWS V14.01,2013-04-14 02:52:00,
2013-04-13 22:57:00,58.3,52.5,30.00,ESE,111,0.0,0.0,81,0.00,,---,0.00,VWS V14.01,2013-04-14 02:57:00,
2013-04-13 23:00:00,62.0,54.4,29.95,ESE,111,0.0,0.0,76,0.00,,---,0.00,VWS V14.01,2013-04-14 03:00:00,
2013-04-13 23:02:00,58.1,52.3,30.00,ESE,111,0.0,0.0,81,0.00,,---,0.00,VWS V14.01,2013-04-14 03:02:00,
2013-04-13 23:07:00,58.1,52.3,30.00,ESE,111,0.0,0.0,81,0.00,,---,0.00,VWS V14.01,2013-04-14 03:07:00,
2013-04-13 23:12:00,57.9,52.5,30.00,ESE,111,0.0,0.0,82,0.00,,---,0.00,VWS V14.01,2013-04-14 03:12:00,
2013-04-13 23:17:00,57.7,52.2,30.00,ESE,111,0.0,0.0,82,0.00,,---,0.00,VWS V14.01,2013-04-14 03:17:00,
2013-04-13 23:22:00,57.6,52.2,30.00,ESE,111,0.0,0.0,82,0.00,,---,0.00,VWS V14.01,2013-04-14 03:22:00,
2013-04-13 23:27:00,57.6,52.2,30.00,ESE,111,0.0,0.0,82,0.00,,---,0.00,VWS V14.01,2013-04-14 03:27:00,
2013-04-13 23:30:00,61.1,53.5,29.96,ESE,111,0.0,0.0,76,0.00,,---,0.00,VWS V14.01,2013-04-14 03:30:00,
2013-04-13 23:32:00,57.3,51.9,30.00,ESE,111,0.0,0.0,82,0.00,,---,0.00,VWS V14.01,2013-04-14 03:32:00,
2013-04-13 23:37:00,57.3,51.9,30.00,ESE,111,0.0,0.0,82,0.00,,---,0.00,VWS V14.01,2013-04-14 03:37:00,
2013-04-13 23:42:00,57.4,52.0,30.00,ESE,111,0.0,0.0,82,0.00,,---,0.00,VWS V14.01,2013-04-14 03:42:00,
2013-04-13 23:47:00,57.2,51.8,30.00,ESE,111,0.0,0.0,82,0.00,,---,0.00,VWS V14.01,2013-04-14 03:47:00,
2013-04-13 23:52:00,57.1,51.7,30.00,ESE,111,0.0,0.0,82,0.00,,---,0.00,VWS V14.01,2013-04-14 03:52:00,
2013-04-13 23:57:00,57.1,51.7,30.00,ESE,111,0.0,0.0,82,0.00,,---,0.00,VWS V14.01,2013-04-14 03:57:00,